User: anonymous   Login
Location: Unspecified
(0.0000°N, 0.0000°E)
Time: 20:48:42
(UTC+00:00)
Language:

STARLINK-31008 - Orbit

View from above orbital plane
View from above orbital plane
View from above satellite
View from above satellite

Ground track
Ground track

The orbit is defined by the following mean orbital elements,

1 58636U          26145.62395630 +.00000000 +00000-0 +27915-4 0 00001
2 58636  43.0039 352.9431 0000749 278.6590  81.4177 15.27573748    00
Epoch (UTC): 25 May 2026 14:58:29
Eccentricity: 0.0000749
inclination: 43.0039°
perigee height: 483 km
apogee height: 484 km
right ascension of ascending node: 352.9431°
argument of perigee: 278.6590°
revolutions per day: 15.27573748
mean anomaly at epoch: 81.4177°

The dashed part of the orbit path shows where the satellite is in the earth's shadow,  

DLR